Location: Bottenau
(48.5138°N, 8.0462°E)
Time: 05:41:37
(UTC+00:00)

MetOp-B - Pass Details

Date: 18 April 2021
Orbit: 819 x 822 km, 98.7° (Epoch: 09 May)

Event Time Altitude Azimuth Distance (km) Brightness Sun altitude
Exits shadow 19:52:04 18° 146° (SE) 1,910 5.5 -13.9°
Maximum altitude 19:56:00 61° 70° (ENE) 929 4.2 -14.4°
Drops below altitude 10° 20:01:17 10° 351° (N) 2,429 7.3 -15.1°
Sets 20:03:40 0° 349° (NNW) 3,366 8.1 -15.4°
